Location: Milevsko
(49.4500°N, 14.3670°E)
Time: 01:37:33
(UTC+02:00)

ISS - Pass Details

Date: 27 May 2023
Orbit: 411 x 419 km, 51.6° (Epoch: 04 June)

Event Time Altitude Azimuth Distance (km) Brightness Sun altitude
Rises 21:58:53 0° 288° (WNW) 2,355 1.2 -8.6°
Reaches altitude 10° 22:01:05 10° 279° (W) 1,491 -0.1 -8.9°
Maximum altitude 22:04:09 34° 213° (SSW) 700 -2.8 -9.2°
Enters shadow 22:06:41 14° 150° (SSE) 1,290 -1.9 -9.4°
